Regional Weather Roundup
Issued by NWS Mobile, AL

Home | Current Version | Previous Version | Text Only | Print | Product List | Glossary On
Versions: 1 2 3 4 5 6 7 8 9 10 11 12 13 14 15 16 17 18 19 20 21 22 23 24 25 26 27 28 29 30 31 32 33 34 35 36 37 38 39 40 41 42 43 44 45 46 47 48 49
000
ASUS44 KMOB 302010
RWRMOB
REGIONAL WEATHER ROUNDUP
NATIONAL WEATHER SERVICE MOBILE AL
200 PM CST FRI JAN 30 2015

NOTE: "FAIR" INDICATES FEW OR NO CLOUDS BELOW 12,000 FEET WITH NO
      SIGNIFICANT WEATHER AND/OR OBSTRUCTIONS TO VISIBILITY.

  * THESE STATIONS ARE PART OF THE UNIVERSITY OF SOUTH ALABAMA
    MESONET AND ARE NOT UNDER NWS OR FAA QUALITY CONTROL.

ALZ061>064-302100-
COASTAL ALABAMA

CITY           SKY/WX    TMP DP  RH WIND       PRES   REMARKS
MOBILE REG APT PTSUNNY   58  29  33 N14       30.30F
BROOKLEY FIELD PTSUNNY   61  31  32 N10       30.30F
USA CAMPUS*    NOT AVBL
DOG RIVER*     NOT AVBL


CITY           SKY/WX    TMP DP  RH WIND       PRES   REMARKS
MOUNT VERNON*  NOT AVBL
SARALAND*      NOT AVBL
BAY MINETTE*   NOT AVBL
LOXLEY*        NOT AVBL
ROBERTSDALE*   NOT AVBL
FAIRHOPE*        N/A     59  32  36 NE12      30.27F
ELBERTA*         N/A    N/A N/A N/A NE13      30.27F
FOLEY*         NOT AVBL
GRAND BAY*     NOT AVBL
DAUPHIN ISLND* NOT AVBL
BON SCOUR NWR* NOT AVBL
GULF SHORES    PTSUNNY   58  32  37 N6        30.28F

$$

ALZ051>060-302100-
INTERIOR SOUTHWEST AND SOUTH CENTRAL ALABAMA

CITY           SKY/WX    TMP DP  RH WIND       PRES   REMARKS
GREENVILLE     MOSUNNY   58  26  29 N10G20    30.29F
EVERGREEN      MOSUNNY   59  29  31 N8G18     30.30F
CASTLEBERRY*   NOT AVBL
ATMORE*          N/A    N/A N/A N/A VRB17     30.30F
DIXIE*           N/A    N/A N/A N/A N6        30.26F
ANDALUSIA/OPP  SUNNY     64  28  25 N15       30.28F
ANDALUSIA*       N/A    N/A N/A N/A N6        30.27F
FLORALA APT    SUNNY     61  28  28 VRB7      30.28F
FLORALA*         N/A    N/A N/A N/A NW13      30.24F

$$

FLZ001>006-302100-
WESTERN FLORIDA PANHANDLE

CITY           SKY/WX    TMP DP  RH WIND       PRES   REMARKS
PENSACOLA      PTSUNNY   61  30  31 N9        30.27F
NAS PENSACOLA  PTSUNNY   62  30  29 N13       30.26F
MILTON         PTSUNNY   60  28  29 N9G18     30.27F
WHTNG S FIELD  PTSUNNY   63  30  28 N12       30.27F


CITY           SKY/WX    TMP DP  RH WIND       PRES   REMARKS
WALNUT HILL*   NOT AVBL
JAY*           NOT AVBL
DUKE FIELD     PTSUNNY   62  28  27 N14       30.26F
CRESTVIEW      SUNNY     62  29  28 NE9       30.28F
VALPARAISO     MOSUNNY   63  28  26 N15       30.25F
DESTIN         MOSUNNY   63  33  32 N10       30.25F

$$

MSZ076-079-302100-
INTERIOR SOUTHEAST MISSISSIPPI

CITY           SKY/WX    TMP DP  RH WIND       PRES   REMARKS
LEAKESVILLE*   NOT AVBL
AGRICOLA*      NOT AVBL

$$

MARINE OBSERVATIONS

STATION/POSITION TIME  TEMP    WIND        PRES    WAVE
                       AIR SEA DIR/SP/G            HT/PER
                 (UTC) (F)     (DEG/KT/KT) (MB)    (FT/S)
PASCAGOULA       2000   56     360/  7/  9 1025.7F
PETIT BOIS ISLND 2000   56     360/  7/  9 1026.3F
GRAND BAY        1900   54      30/ 10     1027.0F
KATRINA CUT      1900   54     360/  8     1026.8F
CEDAR POINT      1900   52      40/ 11     1025.7F
E DAUPHIN ISLAND 1900   52     360/ 15/ 16 1026.2F
MIDDLE BAY LIGHT 1900   54     350/ 15     1025.4F
USCG MOBILE BAY  2000   57 55   10/  9/ 16 1024.7F
STATE DOCKS      2000   57 51              1025.5F
MEAHER PARK      1900   57     340/  9     1026.1F
WEEKS BAY        1900   57                   N/A
FORT MORGAN      2000   54      10/ 16/ 18 1025.2F
12 S ORANGE BCH  2000   55 62  360/  8/ 12 1024.8F   2/ 4
PENSACOLA BAY    2000   62 58   10/  8/ 12 1025.2F
64 S DAUPHIN ISL 1932   54 69   20/ 17/ 21 1026.0F   6/ 6

$$

SELECTED LOCATIONS ACROSS THE REGION

CITY           SKY/WX    TMP DP  RH WIND       PRES   REMARKS
NEW ORLEANS    PTSUNNY   57  37  47 N10       30.34F
GULFPORT       CLOUDY    59  30  33 VRB7      30.31F
PASCAGOULA AP  PTSUNNY   60  32  34 N8        30.30F
PASCAGOULA*    NOT AVBL
HATTIESBURG    PTSUNNY   59  29  31 N9        30.34F
LAUREL         PTSUNNY   57  28  33 NE9G16    30.35F
MERIDIAN       MOSUNNY   57  26  30 N13       30.35F
JACKSON        MOSUNNY   55  28  35 N10       30.38F
MONTGOMERY     SUNNY     59  25  27 N10       30.32F
TROY           SUNNY     58  26  29 NW9       30.29F
KINSTON*       NOT AVBL
GENEVA*        NOT AVBL
ASHFORD*         N/A    N/A N/A N/A N6        30.27F
DOTHAN         SUNNY     60  29  30 N12       30.29F
PANAMA CITY    MOSUNNY   62  31  31 N13G21    30.23F

$$




USA.gov is the U.S. government's official web portal to all federal, state and local government web resources and services.